When you browse on this site, cookies collect data to enhance your experience and personalize the content and advertising you see.
Visit our Privacy Policy to learn more. By continuing to use the site, you agree to this use of cookies and data.
  • In Lithuania
  • List of Countries
  • For 7 days
  • Water Temperature
  • Satellite Maps
  • Weather Map
  • Weather Widgets
  • user-avatar
    Login

    Hourly Weather Townsville

    Today, 22 July, Monday

    Time Temperature Precipitation Wind Pressure Humidity
    00:00 +17°C° 0 mm 2 mps 755 mmHg 91%
    01:00 +17°C° 0 mm 2 mps 754 mmHg 90%
    02:00 +17°C° 0 mm 2 mps 754 mmHg 90%
    03:00 +17°C° 0 mm 2 mps 754 mmHg 90%
    04:00 +16°C° 0 mm 2 mps 754 mmHg 91%
    05:00 +16°C° 0 mm 2 mps 754 mmHg 91%
    06:00 +16°C° 0 mm 2 mps 755 mmHg 91%
    07:00 +16°C° 0 mm 2 mps 755 mmHg 91%
    08:00 +19°C° 0 mm 2 mps 755 mmHg 83%
    09:00 +21°C° 0 mm 2 mps 755 mmHg 74%
    10:00 +24°C° 0 mm 2 mps 755 mmHg 65%
    11:00 +25°C° 0 mm 3 mps 755 mmHg 62%
    12:00 +26°C° 0 mm 4 mps 754 mmHg 59%
    13:00 +27°C° 0 mm 4 mps 754 mmHg 56%
    14:00 +26°C° 0 mm 5 mps 754 mmHg 59%
    15:00 +26°C° 0 mm 5 mps 754 mmHg 61%
    16:00 +25°C° 0 mm 5 mps 753 mmHg 63%
    17:00 +23°C° 0 mm 5 mps 754 mmHg 71%
    18:00 +21°C° 0 mm 5 mps 754 mmHg 78%
    19:00 +20°C° 0 mm 5 mps 755 mmHg 85%
    20:00 +19°C° 0 mm 4 mps 755 mmHg 85%
    21:00 +19°C° 0 mm 4 mps 756 mmHg 86%
    22:00 +19°C° 0 mm 4 mps 756 mmHg 86%
    23:00 +19°C° 0 mm 4 mps 756 mmHg 85%

    Tomorrow, 23 July, Tuesday

    Time Temperature Precipitation Wind Pressure Humidity
    00:00 +19°C° 0 mm 4 mps 756 mmHg 85%
    01:00 +19°C° 0 mm 3 mps 756 mmHg 84%
    02:00 +18°C° 0 mm 3 mps 756 mmHg 85%
    03:00 +18°C° 0 mm 3 mps 756 mmHg 86%
    04:00 +17°C° 0 mm 3 mps 756 mmHg 87%
    05:00 +17°C° 0 mm 3 mps 756 mmHg 87%
    06:00 +17°C° 0 mm 3 mps 756 mmHg 88%
    07:00 +16°C° 0 mm 3 mps 756 mmHg 89%
    08:00 +19°C° 0 mm 3 mps 757 mmHg 78%
    09:00 +21°C° 0 mm 3 mps 757 mmHg 67%
    10:00 +24°C° 0 mm 3 mps 758 mmHg 56%
    11:00 +25°C° 0 mm 4 mps 757 mmHg 54%
    12:00 +26°C° 0 mm 4 mps 757 mmHg 53%
    13:00 +27°C° 0 mm 5 mps 756 mmHg 51%
    14:00 +26°C° 0 mm 5 mps 756 mmHg 55%
    15:00 +25°C° 0 mm 5 mps 756 mmHg 58%
    16:00 +23°C° 0 mm 5 mps 756 mmHg 61%
    17:00 +22°C° 0 mm 4 mps 756 mmHg 67%
    18:00 +20°C° 0 mm 4 mps 757 mmHg 74%
    19:00 +19°C° 0 mm 3 mps 757 mmHg 80%
    20:00 +19°C° 0 mm 3 mps 757 mmHg 81%
    21:00 +18°C° 0 mm 3 mps 758 mmHg 83%
    22:00 +18°C° 0 mm 3 mps 758 mmHg 85%
    23:00 +17°C° 0 mm 3 mps 758 mmHg 86%

    Day after tomorrow, 24 July, Wednesday

    Time Temperature Precipitation Wind Pressure Humidity
    00:00 +17°C° 0 mm 3 mps 758 mmHg 87%
    01:00 +16°C° 0 mm 3 mps 758 mmHg 89%
    02:00 +16°C° 0 mm 3 mps 758 mmHg 89%
    03:00 +16°C° 0 mm 3 mps 758 mmHg 89%
    04:00 +16°C° 0 mm 3 mps 758 mmHg 89%
    05:00 +14°C° 0 mm 3 mps 758 mmHg 89%
    06:00 +15°C° 0 mm 2 mps 758 mmHg 90%
    07:00 +15°C° 0 mm 2 mps 758 mmHg 90%
    08:00 +17°C° 0 mm 3 mps 759 mmHg 75%
    09:00 +20°C° 0 mm 3 mps 759 mmHg 60%
    10:00 +24°C° 0 mm 3 mps 759 mmHg 45%
    11:00 +25°C° 0 mm 4 mps 759 mmHg 43%
    12:00 +26°C° 0 mm 5 mps 758 mmHg 41%
    13:00 +26°C° 0 mm 6 mps 757 mmHg 40%
    14:00 +26°C° 0 mm 6 mps 757 mmHg 42%
    15:00 +26°C° 0 mm 6 mps 757 mmHg 44%
    16:00 +24°C° 0 mm 6 mps 756 mmHg 47%
    17:00 +22°C° 0 mm 5 mps 757 mmHg 54%
    18:00 +20°C° 0 mm 5 mps 757 mmHg 62%
    19:00 +17°C° 0 mm 5 mps 758 mmHg 70%
    20:00 +17°C° 0 mm 5 mps 758 mmHg 73%
    21:00 +17°C° 0 mm 4 mps 758 mmHg 75%
    22:00 +15°C° 0 mm 4 mps 759 mmHg 78%
    23:00 +15°C° 0 mm 4 mps 758 mmHg 79%

    25 July, Thursday

    Time Temperature Precipitation Wind Pressure Humidity
    00:00 +14°C° 0 mm 4 mps 758 mmHg 80%
    01:00 +14°C° 0 mm 4 mps 758 mmHg 80%
    02:00 +14°C° 0 mm 3 mps 758 mmHg 81%
    03:00 +13°C° 0 mm 3 mps 757 mmHg 82%
    04:00 +13°C° 0 mm 3 mps 757 mmHg 83%
    05:00 +13°C° 0 mm 3 mps 758 mmHg 83%
    06:00 +13°C° 0 mm 3 mps 758 mmHg 83%
    07:00 +13°C° 0 mm 3 mps 758 mmHg 83%
    08:00 +16°C° 0 mm 3 mps 758 mmHg 73%
    09:00 +19°C° 0 mm 4 mps 759 mmHg 64%
    10:00 +22°C° 0 mm 4 mps 759 mmHg 55%
    11:00 +23°C° 0 mm 5 mps 758 mmHg 49%
    12:00 +25°C° 0 mm 5 mps 757 mmHg 44%
    13:00 +26°C° 0 mm 6 mps 757 mmHg 39%
    14:00 +26°C° 0 mm 6 mps 756 mmHg 40%
    15:00 +24°C° 0 mm 6 mps 756 mmHg 42%
    16:00 +24°C° 0 mm 6 mps 756 mmHg 43%
    17:00 +22°C° 0 mm 6 mps 756 mmHg 52%
    18:00 +20°C° 0 mm 5 mps 757 mmHg 60%
    19:00 +17°C° 0 mm 5 mps 757 mmHg 69%
    20:00 +16°C° 0 mm 5 mps 757 mmHg 73%
    21:00 +15°C° 0 mm 4 mps 758 mmHg 76%
    22:00 +15°C° 0 mm 4 mps 758 mmHg 80%
    23:00 +14°C° 0 mm 4 mps 758 mmHg 82%

    26 July, Friday

    Time Temperature Precipitation Wind Pressure Humidity
    00:00 +14°C° 0 mm 4 mps 757 mmHg 84%
    01:00 +14°C° 0 mm 4 mps 757 mmHg 86%
    02:00 +14°C° 0 mm 4 mps 757 mmHg 87%
    03:00 +13°C° 0 mm 3 mps 757 mmHg 87%
    04:00 +13°C° 0 mm 3 mps 757 mmHg 88%
    05:00 +13°C° 0 mm 3 mps 757 mmHg 89%
    06:00 +13°C° 0 mm 3 mps 757 mmHg 89%
    07:00 +13°C° 0 mm 3 mps 757 mmHg 90%
    08:00 +17°C° 0 mm 3 mps 757 mmHg 81%
    09:00 +19°C° 0 mm 3 mps 757 mmHg 71%
    10:00 +21°C° 0 mm 4 mps 757 mmHg 62%
    11:00 +22°C° 0 mm 4 mps 757 mmHg 60%
    12:00 +23°C° 0 mm 4 mps 756 mmHg 58%
    13:00 +25°C° 0 mm 4 mps 756 mmHg 56%
    14:00 +25°C° 0 mm 5 mps 755 mmHg 57%
    15:00 +23°C° 0 mm 5 mps 755 mmHg 59%
    16:00 +23°C° 0 mm 5 mps 755 mmHg 61%
    17:00 +21°C° 0 mm 4 mps 755 mmHg 68%
    18:00 +20°C° 0 mm 4 mps 756 mmHg 75%
    19:00 +18°C° 0 mm 4 mps 756 mmHg 83%
    20:00 +18°C° 0 mm 4 mps 756 mmHg 85%
    21:00 +17°C° 0 mm 4 mps 756 mmHg 86%
    22:00 +17°C° 0 mm 3 mps 757 mmHg 88%
    23:00 +17°C° 0 mm 3 mps 757 mmHg 89%

    27 July, Saturday

    Time Temperature Precipitation Wind Pressure Humidity
    00:00 +16°C° 0 mm 3 mps 757 mmHg 89%
    01:00 +16°C° 0 mm 3 mps 757 mmHg 90%
    02:00 +16°C° 0 mm 3 mps 756 mmHg 91%
    03:00 +16°C° 0 mm 3 mps 756 mmHg 91%
    04:00 +14°C° 0 mm 3 mps 756 mmHg 91%
    05:00 +14°C° 0 mm 3 mps 756 mmHg 92%
    06:00 +14°C° 0 mm 3 mps 757 mmHg 92%
    07:00 +14°C° 0 mm 3 mps 757 mmHg 92%
    08:00 +17°C° 0 mm 2 mps 757 mmHg 81%
    09:00 +20°C° 0 mm 2 mps 757 mmHg 71%
    10:00 +23°C° 0 mm 2 mps 758 mmHg 60%
    11:00 +24°C° 0 mm 3 mps 757 mmHg 56%
    12:00 +25°C° 0 mm 3 mps 756 mmHg 52%
    13:00 +26°C° 0 mm 3 mps 756 mmHg 47%
    14:00 +25°C° 0 mm 4 mps 755 mmHg 51%
    15:00 +25°C° 0 mm 4 mps 755 mmHg 54%
    16:00 +23°C° 0 mm 4 mps 755 mmHg 57%
    17:00 +21°C° 0 mm 3 mps 755 mmHg 67%
    18:00 +20°C° 0 mm 3 mps 755 mmHg 76%
    19:00 +18°C° 0 mm 2 mps 756 mmHg 86%
    20:00 +18°C° 0 mm 2 mps 756 mmHg 87%
    21:00 +17°C° 0 mm 2 mps 756 mmHg 89%
    22:00 +17°C° 0 mm 2 mps 757 mmHg 91%
    23:00 +17°C° 0 mm 2 mps 757 mmHg 91%
    Show more